Flag for U.S.A. Weather past 2 weeks in Fremont, California, U.S.A.

Now
72 °F

Sunny.


Feels Like: 77 °F
Forecast: 56 / 71 °F
Wind: 8 mph from Northeast

Location: Moffett Field

Current Time: Sep 4, 2015 at 12:42:08 PM

Latest Report: Sep 4, 2015 at 11:56 AM


Visibility: 10 mi

Pressure: 29.90 "Hg

Humidity: 43%

Dew point: 48 °F

Location of FremontLocation

Historic Weather in Fremont — Graph

°F

Fremont temperature yesterday

Maximum temperature yesterday: 75 °F (at 1:56 PM)
Minimum temperature yesterday: 60 °F (at 5:56 AM)
Average temperature yesterday: 66 °F

Past Weeks' High & Low Weather Summary

 TemperatureHumidityPressure
High90 °F (Aug 28, 2:56 PM)90% (Aug 26, 1:56 AM)30.08 "Hg (Aug 26, 1:56 AM)
Low54 °F (Sep 4, 6:56 AM)26% (Aug 27, 1:56 PM)29.84 "Hg (Aug 28, 4:56 PM)
Average68 °F67%29.95 "Hg
* Reported Aug 20 10:56 AM — Sep 4 10:56 AM, Fremont, Weather by CustomWeather, © 2015

Note: Actual official high and low records may vary slightly from our data, if they occured in-between our weather recording intervals... More about our weather records

Advertising

Fremont weather history for previous 24 hours

 ConditionsComfort  
Time TempWeatherWind HumidityBarometerVisibility
10:56 AM
Fri, Sep 4
69 °FSunny.No wind45%29.91 "Hg10 mi
9:56 AM65 °FSunny.6 mph54%29.91 "Hg10 mi
8:56 AM61 °FSunny.5 mph65%29.91 "Hg10 mi
7:56 AM58 °FSunny.No wind72%29.90 "Hg10 mi
6:56 AM54 °FClear.3 mph77%29.88 "Hg10 mi
5:56 AM55 °FClear.No wind77%29.87 "Hg10 mi
4:56 AM55 °FClear.No wind72%29.86 "Hg10 mi
3:56 AM56 °FClear.No wind65%29.85 "Hg10 mi
2:56 AM56 °FClear.3 mph65%29.85 "Hg10 mi
1:56 AM57 °FClear.No wind60%29.85 "Hg10 mi
12:56 AM59 °FClear.No wind56%29.86 "Hg10 mi
11:56 PM
Thu, Sep 3
61 °FClear.No wind60%29.86 "Hg10 mi
10:56 PM60 °FClear.5 mph67%29.86 "Hg10 mi
9:56 PM62 °FClear.No wind58%29.86 "Hg10 mi
8:56 PM63 °FClear.3 mph58%29.86 "Hg10 mi
7:56 PM64 °FSunny.8 mph58%29.85 "Hg10 mi
6:56 PM66 °FSunny.8 mph54%29.85 "Hg10 mi
5:56 PM69 °FSunny.14 mph45%29.86 "Hg10 mi
4:56 PM72 °FSunny.14 mph43%29.86 "Hg10 mi
3:56 PM74 °FSunny.15 mph37%29.87 "Hg10 mi
2:56 PM74 °FSunny.10 mph36%29.89 "Hg10 mi
1:56 PM75 °FSunny.12 mph36%29.90 "Hg10 mi
12:56 PM74 °FSunny.7 mph37%29.92 "Hg10 mi
Weather by CustomWeather, © 2015

See weather overviewHow to use our weather pages